Regional Weather Roundup
Issued by NWS

Home | Current Version | Previous Version | Graphics & Text | Print | Product List | Glossary On
Versions: 1 2 3 4 5 6 7 8 9 10 11 12 13 14 15 16 17 18 19 20 21 22 23 24 25 26 27 28 29 30 31 32 33 34 35 36 37 38 39 40 41 42 43 44 45 46 47 48 49 50
448
ASUS45 KCYS 250810
RWRWY

WYOMING REGIONAL WEATHER ROUNDUP
NATIONAL WEATHER SERVICE CHEYENNE WY
200 AM MDT TUE APR 25 2017

NOTE:  "FAIR" INDICATES FEW OR NO CLOUDS BELOW 12,000 FEET
WITH NO SIGNIFICANT WEATHER AND/OR OBSTRUCTIONS TO VISIBILITY.

WYZ001-250900-
YELLOWSTONE NATIONAL PARK

CITY           SKY/WX    TMP DP  RH WIND       PRES   REMARKS
LK YELLOWSTONE   N/A     29  29 100 CALM      29.64S
W YELLOWSTONE  NOT AVBL

$$
WYZ002>013-054>058-071-098>099-250900-
NORTHERN WYOMING

CITY           SKY/WX    TMP DP  RH WIND       PRES   REMARKS
JACKSON        CLOUDY    34  32  93 SW6       29.65S WCI  29
CODY           CLOUDY    39  35  86 N12       29.61S WCI  32
GREYBULL       CLOUDY    44  39  82 NW17      29.51F
WORLAND        LGT RAIN  42  40  92 NW17      29.51F
SHERIDAN       LGT SNOW  33  32  96 W5        29.63R FOG     WCI  29
BUFFALO        SNOW      34  31  88 NW20G29   29.55F VSB 1/2 WCI  23
GILLETTE       RAIN      41  41 100 NE18      29.50F
HULETT         LGT SNOW  36  34  93 E12G24    29.59F WCI  27
NEWCASTLE      CLOUDY    43  36  75 SE16      29.55R

$$
WYZ014>020-022>026-101>103-250900-
CENTRAL WYOMING

CITY           SKY/WX    TMP DP  RH WIND       PRES   REMARKS
BIG PINEY      FAIR      31  26  82 W5        29.67S WCI  26
PINEDALE       CLOUDY    30  28  93 CALM      29.67S
DUBOIS         FAIR      32  27  80 NW12      29.58S WCI  23
LANDER         FAIR      37  31  78 CALM      29.54S
RIVERTON       MOCLDY    40  38  93 E3        29.55F
CASPER         FLURRIES  38  35  89 W25G35    29.50S WCI  27
DOUGLAS        CLOUDY    42  40  92 SE7       29.51F

$$
WYZ021-027>030-104>119-250900-
SOUTHERN WYOMING

CITY           SKY/WX    TMP DP  RH WIND       PRES   REMARKS
EVANSTON       FOG       31  31 100 SW16      29.73F VSB 1/4 WCI  20
KEMMERER         N/A     32  30  93 CALM      29.71S
FORT BRIDGER   CLOUDY    34  33  99 W16G22    29.74S WCI  23
ROCK SPRINGS   FAIR      33  27  78 W18       29.68F WCI  22
DIXON            N/A     37  33  84 W10       29.73S WCI  30
RAWLINS        FAIR      34  29  82 SW21G30   29.61F WCI  22
SARATOGA       PTSUNNY   34  32  93 W14       29.66S WCI  24
LARAMIE        NOT AVBL
CHEYENNE       FAIR      38  33  82 W6        29.55F WCI  33
TORRINGTON     FAIR      44  42  93 E8        29.51F

$$




USA.gov is the U.S. government's official web portal to all federal, state and local government web resources and services.